Find Starlink 36572

NORAD ID: 67536 Int'l Des: 2026-014 Owner: SPXS Country: US Constellation: starlink operational
LEOCIRCULARRETROGRADE

Current View

Loading 3D Globe...

About Starlink 36572

Description loading...

Upcoming Passes

Passes for default location (London). Set your location on the main map for personalized predictions.

Altitude History

Loading altitude history...

Two-Line Element Set

1 67536U 26014E 26145.63334087 .00013431 00000-0 41750-3 0 9994
2 67536 97.2879 32.6457 0001939 90.6723 269.4742 15.33453874 20578
Epoch: May 25, 2026 • Age: 16 hours

Current Status

Altitude 467.9 km
Velocity 7.63 km/s
Sub-Earth Point 6.10°N, 144.04°W
Launch Date Jan 22, 2026
Age 0.3 years
Type internet

Technical Details

Classification Payload
Mass 575.00 kg
Dry Mass 530.00 kg
Total Mass 575.00 kg
Length 0.30 m
Diameter 4.10 m
Span 29.00 m
Shape Box + pan
Manufacturer SPXS
Bus Type Starlink V2MO
Phase Status In Orbit
Owner/State SPXS/US

Most Searched